Saint Johnsbury, VT

10:57 AM EST on February 20, 2017 (GMT -0500)
St. Johnsbury

Weather History for K1V4 - April, 2014

Change the Weather History Date:

Monday, April 28, 2014

  Actual Average Record
Temperature  
Mean Temperature 45 °F 50 °F  
Max Temperature 56 °F 62 °F 92 °F (1990)
Min Temperature 33 °F 37 °F 19 °F (1947)
Degree Days  
Heating Degree Days 20 15  
Month to date heating degree days 639 589  
Since 1 July heating degree days 8092 7389  
Cooling Degree Days 0 0  
Month to date cooling degree days 0 0  
Year to date cooling degree days 0 0  
Moisture  
Dew Point 34 °F    
Average Humidity 73    
Maximum Humidity 96    
Minimum Humidity 50    
Precipitation  
Precipitation 0.00 in 0.10 in 1.60 in (1920)
Month to date precipitation 2.74 2.65  
Year to date precipitation 10.74 9.84  
Sea Level Pressure  
Sea Level Pressure 30.12 in    
Wind  
Wind Speed - (North)    
Max Wind Speed -    
Max Gust Speed -    
T = Trace of Precipitation, MM = Missing Value Source: NWS Daily Summary

Daily Weather History Graph

Daily Weather History Graph

Search for Another Location

Airport or City:

Trip Planner

Search our weather history database for the weather conditions in past years. The results will help you decide how hot, cold, wet, or windy it might be!

Date:

Astronomy

Apr. 28, 2014 Rise Set
Actual Time 5:43 AM EDT 7:48 PM EDT
Civil Twilight 5:11 AM EDT 8:20 PM EDT
Nautical Twilight 4:32 AM EDT 8:59 PM EDT
Astronomical Twilight 3:49 AM EDT 9:42 PM EDT
Moon 5:21 AM EDT (4/28) 7:22 PM EDT (4/28)
Length of Visible Light 15h 08m
Length of Day
14h 05m
Waning Crescent, 0% of the Moon is Illuminated
Apr 28
Waning Crescent
Apr 29
New
May 6
First Quarter
May 14
Full
May 21
Last Quarter

Hourly Weather History & Observations

Time (EDT) Temp. Dew Point Humidity Pressure Visibility Wind Dir Wind Speed Gust Speed Precip Events Conditions
12:54 AM 37.0 °F 34.0 °F 89% 30.10 in - North - - N/A   Unknown
1:54 AM 37.9 °F 35.1 °F 89% 30.10 in - North - - N/A   Unknown
2:54 AM 37.0 °F 35.1 °F 93% 30.10 in - North - - N/A   Unknown
3:54 AM 37.0 °F 34.0 °F 89% 30.09 in - North - - N/A   Unknown
4:54 AM 34.0 °F 32.0 °F 92% 30.09 in - North - - N/A   Unknown
5:54 AM 33.1 °F 30.9 °F 92% 30.08 in - North - - N/A   Unknown
6:54 AM 35.1 °F 33.1 °F 92% 30.07 in - North - - N/A   Unknown
7:54 AM 41.0 °F 33.1 °F 73% 30.08 in - North - - N/A   Unknown
8:54 AM 43.0 °F 32.0 °F 65% 30.11 in - North - - N/A   Unknown
9:54 AM 46.0 °F 32.0 °F 58% 30.10 in - North - - N/A   Unknown
10:54 AM 45.0 °F 33.1 °F 63% 30.13 in - North - - N/A   Unknown
11:54 AM 46.9 °F 33.1 °F 59% 30.12 in - North - - N/A   Unknown
12:54 PM 48.0 °F 34.0 °F 58% 30.12 in - North - - N/A   Unknown
1:54 PM 50.0 °F 34.0 °F 54% 30.09 in - North - - N/A   Unknown
2:54 PM 53.1 °F 35.1 °F 50% 30.09 in - North - - N/A   Unknown
3:54 PM 54.0 °F 36.0 °F 51% 30.06 in - North - - N/A   Unknown
5:54 PM 52.0 °F 36.0 °F 54% 30.12 in - North - - N/A   Unknown
6:54 PM 52.0 °F 36.0 °F 54% 30.13 in - North - - N/A   Unknown
7:54 PM 51.1 °F 36.0 °F 56% 30.15 in - North - - N/A   Unknown
8:54 PM 48.9 °F 35.1 °F 59% 30.18 in - North - - N/A   Unknown
9:54 PM 46.9 °F 35.1 °F 63% 30.21 in - North - - N/A   Unknown
10:54 PM 46.9 °F 36.0 °F 66% 30.23 in - North - - N/A   Unknown
11:54 PM 46.0 °F 36.0 °F 68% 30.22 in - North - - N/A   Unknown